Погода в Кирове

Россия / Кировская область     58˚36′12″N   49˚40′04″E
темп.,
°C
ветер,
м/с
пор.,
м/с
влажн.,
%
обл.,
%
осадки,
мм/ч
давл.,
гПа
погр.,
м
5 декабря, сб
сб500:00−13˚ю238310 0.0 104473
03:00−13˚ююз258512 0.0 1044100
06:00−13˚ююз25850 0.0 1043105
09:00−13˚ююз26830 0.0 1043181
12:00−10˚юз367342 0.0 1043266
15:00−11˚юз258346 0.0 1043120
18:00−11˚ююз268465 0.0 1042148
21:00−10˚юз388079 0.0 1042229
6 декабря, вс
вс600:00−11˚юз378438 0.0 1042174
03:00−11˚юз378319 0.0 1042187
06:00−10˚юз39800 0.0 1041225
09:00−10˚зюз49780 0.0 1041247
12:00−7˚зюз49710 0.0 1040316
15:00−9˚зюз39810 0.0 1039252
18:00−8˚зюз49840 0.0 1039260
21:00−9˚з398616 0.0 1039234
7 декабря, пн
пн700:00−9˚з488388 0.0 1038219
03:00−9˚з388384 0.0 1039196
06:00−9˚з388797 0.0 1038218
09:00−9˚зсз388965 0.0 1038246
12:00−7˚з478639 0.0 1038213
15:00−7˚з478570 0.0 1038198
18:00−9˚з359053 0.0 1039124
21:00−9˚з259133 0.0 1039104
8 декабря, вт
вт800:00−9˚з238851 0.0 104080
03:00−10˚з238845 0.0 104050
06:00−10˚з238849 0.0 104077
09:00−10˚зюз358728 0.0 1040106
12:00−7˚з36760 0.0 1040214
15:00−9˚зюз36842 0.0 1040123
18:00−8˚з38822 0.0 1040145
21:00−8˚з36811 0.0 1040135
9 декабря, ср
ср900:00−8˚з36800 0.0 1040133
03:00−8˚з38760 0.0 1040154
06:00−8˚з377528 0.0 1041141
09:00−9˚з377314 0.0 1041136
12:00−6˚з36670 0.0 1041183
15:00−8˚з33760 0.0 104165
18:00−9˚з33780 0.0 104270
21:00−9˚з23770 0.0 104231